ATLAS 5 CENTAUR DEB, 43987

Orbit data source: Space-Track

ATLAS 5 CENTAUR DEB, 43987 is space debris in HEO originally from a launch on Wed, 17 Sep 2014 UTC launched from the Air Force Eastern Test Range (AFETR). Debris objects in space refer to the collection of defunct objects orbiting the Earth. Examples of debris include non-operational satellites, rocket bodies, and fragments generated from explosions, collisions, or faulty payload assembly.

Loading next visibility...
Identifier
43987, 2014-055AS
Orbit
HEO
Country
Flag of USUS
Related business
Flag of USUnited Launch Alliance/Lockheed Martin (US)
Manufacturer
Unknown
Mission
Spacecraft
Bus & Motor
Unknown
Mass
Unknown
Launch date (UTC)
2014-09-17 (12 years ago)
Launch vehicle
Unknown
Launch site
Air Force Eastern Test Range (AFETR)
Object type
Payload
Rocket body
Debris
Shape & HBR
Unknown shape, 1.1 m
Radar Cross Section
Small (<0.1 m²)

Expand to show TLE details & history
Last TLE update: 1 day ago

TLE from 1 day ago
0 ATLAS 5 CENTAUR DEB
1 43987U 14055AS  26118.97982218  .00000000  00000-0  00000-0 0  9990
2 43987  19.9982 149.8282 4911905 152.3131 245.9653  1.84000122 51491
Epoch: 2026-04-28T23:30Z
TLE epoch observation values (Epoch: 2026-04-28T23:30:56.636Z)
Latitude
-0.00003°
Longitude
-59.78857°
Altitude
31,364.72 km
Speed
2.637 km/s
True Right ascension
09h 59m 34s
True Declination
0° 00' 00"
Sunlit
Object was in daylight at epoch
Visualization orbit readout
Latitude
Unknown
Longitude
Unknown
Altitude
Unknown
Speed
Unknown
Apparent Right ascension
Unknown
Apparent Declination
Unknown
Sunlit
N/A
Visualization observer readout
Local Sidereal Time
10:32:09
Azimuth
Unknown
Elevation
Unknown
Doppler factor
Unknown
Orbital elements
Apogee altitude
35,573.926 km
Perigee altitude
7,936.337 km
Semi-major axis
28,133.268 km
Eccentricity
0.49119
Inclination
19.9982°
RAAN
149.8282°
Arg. of periapsis
152.3131°
True anomaly
207.71616°
Mean anomaly
245.9653°
Eccentric anomaly
225.79194°
Mean motion
0.45995 °/min
Orbital period
782.69 mins
BSTAR
0
Loading maneuver chart data...
Computing Atmospheric mass density...

Documentation

Showing up to 5 results
|